Weather History for New Delhi, India

Change the Weather History Date:

Wednesday, January 8, 2014

  Actual Average Record
Temperature  
Mean Temperature 52 °F -  
Max Temperature 68 °F 67 °F 50 °F (2015)
Min Temperature 37 °F 46 °F 44 °F (2015)
Degree Days  
Heating Degree Days 12    
Growing Degree Days 2 (Base 50)    
Moisture  
Dew Point 42 °F    
Average Humidity 78    
Maximum Humidity 100    
Minimum Humidity 30    
Precipitation  
Precipitation 0.00 in - - ()
Sea Level Pressure  
Sea Level Pressure 30.04 in    
Wind  
Wind Speed 1 mph ()    
Max Wind Speed 7 mph    
Max Gust Speed -    
Visibility 0.7 miles    
Events Fog    
Averages and records for this station are not official NWS values.
T = Trace of Precipitation, MM = Missing Value Source: Averaged Metar Reports

Daily Weather History Graph

Daily Weather History Graph

Search for Another Location

Airport:

Trip Planner

Search our weather history database for the weather conditions in past years. The results will help you decide how hot, cold, wet, or windy it might be!

Date:

Astronomy

Jan. 08, 2014 Rise Set
Actual Time 7:15 AM IST 5:41 PM IST
Civil Twilight 6:49 AM IST 6:06 PM IST
Nautical Twilight 6:20 AM IST 6:35 PM IST
Astronomical Twilight 5:51 AM IST 7:04 PM IST
Moon 12:00 PM IST (1/8) No Moon Set
Length of Visible Light 11h 17m
Length of Day
10h 25m
Waxing Crescent, 51% of the Moon is Illuminated
Jan 8
Waxing Crescent
Jan 16
Full
Jan 24
Last Quarter
Jan 31
New
Feb 7
First Quarter

Hourly Weather History & Observations

Time (IST) Temp. Dew Point Humidity Pressure Visibility Wind Dir Wind Speed Gust Speed Precip Events Conditions
12:00 AM 46.4 °F 46.4 °F 100% 30.06 in 0.5 mi Calm Calm - N/A Fog Shallow Fog
12:30 AM 46.4 °F 46.4 °F 100% 30.06 in 0.5 mi Calm Calm - N/A Fog Shallow Fog
1:00 AM 46.4 °F 46.4 °F 100% 30.06 in 0.5 mi Calm Calm - N/A Fog Shallow Fog
1:30 AM 44.6 °F 44.6 °F 100% 30.04 in 0.5 mi Calm Calm - N/A Fog Shallow Fog
2:00 AM 44.6 °F 44.6 °F 100% 30.04 in 0.5 mi Calm Calm - N/A Fog Shallow Fog
2:30 AM 42.8 °F 42.8 °F 100% 30.04 in 0.5 mi Calm Calm - N/A Fog Shallow Fog
3:00 AM 41.0 °F 41.0 °F 100% 30.04 in 0.2 mi Calm Calm - N/A Fog Fog
3:30 AM 41.0 °F 41.0 °F 100% 30.04 in 0.2 mi Calm Calm - N/A Fog Fog
4:00 AM 41.0 °F 41.0 °F 100% 30.04 in 0.2 mi Calm Calm - N/A Fog Fog
4:30 AM 41.0 °F 41.0 °F 100% 30.04 in 0.2 mi Calm Calm - N/A Fog Fog
5:00 AM 39.2 °F 39.2 °F 100% 30.04 in 0.2 mi Calm Calm - N/A Fog Fog
5:30 AM 39.2 °F 39.2 °F 100% 30.04 in 0.2 mi Calm Calm - N/A Fog Fog
6:00 AM 39.2 °F 39.2 °F 100% 30.04 in 0.2 mi Calm Calm - N/A Fog Fog
6:30 AM 37.4 °F 37.4 °F 100% 30.04 in 0.2 mi Calm Calm - N/A Fog Fog
7:00 AM 39.2 °F 39.2 °F 100% 30.04 in 0.3 mi Calm Calm - N/A Fog Fog
7:30 AM 39.2 °F 39.2 °F 100% 30.06 in 0.3 mi Calm Calm - N/A Fog Fog
8:00 AM 41.0 °F 41.0 °F 100% 30.06 in 0.4 mi Calm Calm - N/A Fog Fog
8:30 AM 44.6 °F 44.6 °F 100% 30.06 in 0.5 mi Calm Calm - N/A Fog Shallow Fog
9:00 AM 46.4 °F 46.4 °F 100% 30.06 in 0.6 mi Calm Calm - N/A Fog Shallow Fog
9:30 AM 48.2 °F 48.2 °F 100% 30.09 in 0.7 mi WSW 3.5 mph - N/A   Smoke
10:00 AM 51.8 °F 48.2 °F 88% 30.09 in 0.9 mi NW 3.5 mph - N/A   Smoke
11:00 AM 59.0 °F 48.2 °F 67% 30.09 in 0.9 mi Calm Calm - N/A   Smoke
11:30 AM 60.8 °F 44.6 °F 55% 30.09 in 0.9 mi Calm Calm - N/A   Smoke
12:00 PM 62.6 °F 42.8 °F 48% 30.06 in 0.7 mi SSE 3.5 mph - N/A   Smoke
12:30 PM 66.2 °F 41.0 °F 40% 30.04 in 0.9 mi South 3.5 mph - N/A   Smoke
1:30 PM 66.2 °F 37.4 °F 35% 30.01 in 1.2 mi South 4.6 mph - N/A   Smoke
2:00 PM 68.0 °F 37.4 °F 33% 30.01 in 1.7 mi SE 4.6 mph - N/A   Haze
3:00 PM 68.0 °F 35.6 °F 30% 30.01 in - SSW 6.9 mph - N/A   Haze
3:30 PM 68.0 °F 35.6 °F 30% 30.01 in 2.2 mi SW 6.9 mph - N/A   Haze
4:00 PM 68.0 °F 35.6 °F 30% 30.01 in 2.5 mi SSE 6.9 mph - N/A   Haze
4:30 PM 66.2 °F 37.4 °F 35% 30.01 in - SSE 4.6 mph - N/A   Haze
5:00 PM 64.4 °F 37.4 °F 37% 30.01 in - SE 4.6 mph - N/A   Haze
6:00 PM 60.8 °F 41.0 °F 48% 30.01 in 1.2 mi SE 3.5 mph - N/A   Haze
6:30 PM 59.0 °F 42.8 °F 55% 30.01 in 1.1 mi Calm Calm - N/A   Smoke
7:00 PM 55.4 °F 44.6 °F 67% 30.01 in 1.0 mi Calm Calm - N/A   Smoke
8:00 PM 51.8 °F 44.6 °F 76% 30.01 in 0.6 mi ESE 2.3 mph - N/A   Partly Cloudy
9:00 PM 50.0 °F 44.6 °F 82% 30.04 in 0.4 mi ESE 4.6 mph - N/A Fog Shallow Fog
9:30 PM 50.0 °F 44.6 °F 82% 30.04 in 0.4 mi ESE 4.6 mph - N/A Fog Shallow Fog
10:00 PM 50.0 °F 44.6 °F 82% 30.04 in 0.3 mi East 3.5 mph - N/A Fog Shallow Fog
10:30 PM 50.0 °F 46.4 °F 87% 30.06 in 0.3 mi East 2.3 mph - N/A Fog Shallow Fog
11:00 PM 48.2 °F 44.6 °F 87% 30.04 in 0.2 mi Calm Calm - N/A Fog Fog